This demonstration page uses our WeatherBlox Daily Observations layout. Learn more.

Left ArrowRight Arrow

47.50024, -111.30081

Hourly Observations for January 5, 2022

Temp ( °F °C ) Dew Point ( °F °C ) Humidity (%) Winds ( mph kmh ) Pressure ( in mb ) Visibility ( mi km ) Precip ( " mm )
12:53 am 00:53 Cloudy -12 -24.4 -18 -27.8 73 73 Calm 30.52 1034 10 16 0.00 0.00
1:50 am 01:50 Cloudy -11 -24 -18 -28 70 70 Calm 30.69 1039 10 16 0.00 0.00
1:53 am 01:53 Cloudy -12 -24.4 -18 -27.8 73 73 Calm 30.52 1034 10 16 0.00 0.00
2:53 am 02:53 Cloudy -12 -24.4 -17 -27.2 78 78 Calm 30.53 1034 10 16 0.00 0.00
3:53 am 03:53 Cloudy -12 -24.4 -18 -27.8 73 73 NNW 6 9 30.53 1034 10 16 0.00 0.00
4:53 am 04:53 Cloudy -12 -24.4 -19 -28.3 70 70 N 6 9 30.51 1033 10 16 0.00 0.00
5:29 am 05:29 Cloudy -12 -24.4 -20 -28.9 66 66 N 5 7 30.70 1040 10 16 0.00 0.00
5:53 am 05:53 Cloudy -12 -24.4 -20 -28.9 66 66 NNE 5 7 30.52 1034 10 16 0.00 0.00
6:53 am 06:53 Cloudy -12 -24.4 -19 -28.3 70 70 Calm 30.54 1034 10 16 0.00 0.00
7:53 am 07:53 Cloudy -12 -24.4 -19 -28.3 70 70 Calm 30.57 1035 10 16 0.00 0.00
8:53 am 08:53 Cloudy -11 -23.9 -19 -28.3 67 67 Calm 30.58 1036 10 16 0.00 0.00
9:53 am 09:53 Cloudy -10 -23.3 -18 -27.8 67 67 NNW 5 7 30.60 1036 10 16 0.00 0.00
10:53 am 10:53 Cloudy -10 -23.3 -17 -27.2 70 70 NNW 5 7 30.61 1037 10 16 0.00 0.00
11:53 am 11:53 Cloudy -10 -23.3 -18 -27.8 67 67 WNW 6 9 30.63 1037 9 14 0.00 0.00
12:53 pm 12:53 Cloudy -9 -22.8 -18 -27.8 64 64 WNW 5 7 30.61 1037 10 16 0.00 0.00
1:53 pm 13:53 Cloudy -9 -22.8 -18 -27.8 64 64 undefined N/A 30.61 1037 10 16 0.00 0.00
2:53 pm 14:53 Cloudy -9 -22.8 -17 -27.2 67 67 W 3 6 30.60 1036 10 16 0.00 0.00
3:53 pm 15:53 Cloudy -9 -22.8 -17 -27.2 67 67 Calm 30.62 1037 10 16 0.00 0.00
4:53 pm 16:53 Cloudy with Light Snow -9 -22.8 -16 -26.7 71 71 Calm 30.62 1037 5 8 0.00 0.00
5:04 pm 17:04 Cloudy with Light Snow -9 -22.8 -16 -26.7 71 71 Calm 30.77 1042 2 3 0.00 0.00
5:17 pm 17:17 Cloudy with Light Snow -9 -22.8 -16 -26.7 71 71 Calm 30.77 1042 2 3 0.00 0.00
5:33 pm 17:33 Cloudy with Light Snow -10 -23.3 -15 -26.1 78 78 Calm 30.78 1042 2 3 0.00 0.00
5:44 pm 17:44 Cloudy with Haze -10 -23.3 -16 -26.7 74 74 Calm 30.78 1042 5 8 0.00 0.00
5:53 pm 17:53 Cloudy with Haze -10 -23.3 -15 -26.1 78 78 Calm 30.62 1037 6 10 0.00 0.00
6:53 pm 18:53 Cloudy with Mist and Fog -11 -23.9 -15 -26.1 82 82 Calm 30.63 1037 6 10 0.00 0.00
7:08 pm 19:08 Cloudy -11 -23.9 -16 -26.7 78 78 Calm 30.79 1043 10 16 0.00 0.00
7:53 pm 19:53 Cloudy with Haze -12 -24.4 -17 -27.2 78 78 Calm 30.62 1037 5 8 0.00 0.00
8:16 pm 20:16 Partly Cloudy -12 -24.4 -17 -27.2 78 78 Calm 30.79 1043 10 16 0.00 0.00
8:53 pm 20:53 Mostly Cloudy -12 -24.4 -16 -26.7 81 81 Calm 30.60 1036 10 16 0.00 0.00
9:53 pm 21:53 Cloudy -11 -23.9 -15 -26.1 82 82 ESE 5 7 30.58 1035 10 16 0.00 0.00
10:53 pm 22:53 Cloudy -12 -24.4 -17 -27.2 78 78 ESE 6 9 30.54 1034 10 16 0.00 0.00
11:53 pm 23:53 Mostly Cloudy -13 -25 -18 -27.8 78 78 E 5 7 30.52 1034 10 16 0.00 0.00

Powered by AerisWeather